Weather in Sorocaba

Brazil     23°29′50″S   47°27′47″W
temp.,
°C
wind,
m/s
gust,
m/s
humid.,
%
clouds,
%
prec.,
mm/h
press.,
hPa
HPBL,
m
27 september, mon
mon2700:00+20ese34732 0.0 1018109
03:00+19se11722 0.0 101732
06:00+18sse11750 0.0 101915
09:00+26se12450 0.0 1019618
12:00+32ssw12260 0.0 10172162
15:00+33ssw63242 0.0 10132992
18:00+26se610460 0.0 1014453
21:00+23se511460 0.0 1016293
28 september, tue
tue2800:00+20se15520 0.0 1017188
03:00+19ese12580 0.0 101686
06:00+18se22530 0.0 101624
09:00+27ene11280 0.0 1017466
12:00+33nw11240 0.0 10141746
15:00+34ssw33211 0.0 10102545
18:00+29se59330 0.0 1009302
21:00+25se394118 0.0 1011210
29 september, wed
wed2900:00+24ese253767 0.0 1011128
03:00+24ssw1338100 0.0 1010118
06:00+19sse61075100 0.0 1013395
09:00+24se5651100 0.0 1014816
12:00+26s4345100 0.0 10131331
15:00+27ene4442100 0.0 1009425
18:00+25s585096 0.0 1010374
21:00+21sse61271100 0.0 1014519
30 september, thu
thu3000:00+19se5117998 0.0 1013470
03:00+19se597653 0.0 1013717
06:00+17se410845 0.0 1014385
09:00+23se67595 0.0 1015841
12:00+28se54455 0.0 10121288
15:00+29sse64412 0.0 10091247
18:00+21se69670 0.0 1011450
21:00+18se36800 0.0 1013251
1 october, fri
fri100:00+17sse358398 0.0 1013198
03:00+17se248515 0.0 1011145
06:00+17se22885 0.0 101159
09:00+25s225581 0.0 1012701
12:00+30w2440100 0.0 10091087
15:00+32sw8737100 0.0 1005866
18:00+21ese2584100 6.9 1008153
21:00+19ssw488998 7.8 1014327